TimeCDT,TemperatureF,Dew PointF,Humidity,Sea Level PressureIn,VisibilityMPH,Wind Direction,Wind SpeedMPH,Gust SpeedMPH,PrecipitationIn,Events,Conditions,WindDirDegrees,DateUTC
12:15 AM,50.4,44.2,80,30.10,10.0,WNW,9.2,-,N/A,,Clear,300,2013-09-20 05:15:00
12:35 AM,50.5,43.3,76,30.10,10.0,WNW,9.2,-,N/A,,Clear,290,2013-09-20 05:35:00
12:55 AM,50.9,42.8,74,30.10,10.0,WNW,10.4,-,N/A,,Clear,290,2013-09-20 05:55:00
1:15 AM,50.0,42.8,76,30.10,10.0,WNW,8.1,-,N/A,,Clear,290,2013-09-20 06:15:00
1:35 AM,49.5,42.6,77,30.10,10.0,WNW,10.4,-,N/A,,Clear,290,2013-09-20 06:35:00
1:55 AM,49.1,42.3,77,30.11,10.0,West,5.8,-,N/A,,Clear,280,2013-09-20 06:55:00
2:15 AM,47.5,42.1,82,30.11,10.0,West,5.8,-,N/A,,Clear,270,2013-09-20 07:15:00
2:35 AM,47.3,41.9,82,30.11,10.0,West,5.8,-,N/A,,Clear,270,2013-09-20 07:35:00
2:55 AM,46.4,41.5,83,30.10,10.0,West,5.8,-,N/A,,Clear,280,2013-09-20 07:55:00
3:15 AM,46.6,41.4,82,30.09,10.0,West,6.9,-,N/A,,Clear,270,2013-09-20 08:15:00
3:35 AM,46.6,41.0,81,30.09,10.0,West,8.1,-,N/A,,Clear,270,2013-09-20 08:35:00
3:55 AM,46.6,41.0,81,30.09,10.0,West,9.2,-,N/A,,Clear,270,2013-09-20 08:55:00
4:15 AM,46.8,41.0,80,30.09,10.0,West,9.2,-,N/A,,Clear,270,2013-09-20 09:15:00
4:35 AM,46.2,40.6,81,30.09,10.0,West,8.1,-,N/A,,Clear,270,2013-09-20 09:35:00
4:55 AM,46.0,40.5,81,30.09,10.0,West,9.2,-,N/A,,Clear,280,2013-09-20 09:55:00
5:15 AM,46.4,40.6,80,30.10,10.0,West,8.1,-,N/A,,Clear,280,2013-09-20 10:15:00
5:35 AM,45.5,40.3,82,30.10,10.0,West,5.8,-,N/A,,Clear,280,2013-09-20 10:35:00
5:55 AM,44.8,40.3,84,30.10,10.0,West,5.8,-,N/A,,Clear,280,2013-09-20 10:55:00
6:15 AM,45.0,40.3,84,30.10,10.0,West,6.9,-,N/A,,Clear,280,2013-09-20 11:15:00
6:35 AM,45.0,40.3,84,30.10,10.0,West,8.1,-,N/A,,Clear,270,2013-09-20 11:35:00
6:55 AM,45.0,40.1,83,30.10,10.0,West,9.2,-,N/A,,Clear,270,2013-09-20 11:55:00
7:15 AM,45.5,40.1,81,30.11,10.0,West,9.2,-,N/A,,Clear,270,2013-09-20 12:15:00
7:35 AM,45.5,40.1,81,30.12,10.0,West,6.9,-,N/A,,Clear,270,2013-09-20 12:35:00
7:55 AM,45.7,40.3,81,30.12,10.0,West,8.1,-,N/A,,Clear,270,2013-09-20 12:55:00
8:15 AM,47.1,40.6,78,30.13,10.0,West,6.9,-,N/A,,Clear,270,2013-09-20 13:15:00
8:35 AM,48.9,41.2,75,30.13,10.0,West,10.4,-,N/A,,Clear,280,2013-09-20 13:35:00
8:55 AM,50.5,41.7,72,30.13,10.0,WNW,9.2,-,N/A,,Clear,290,2013-09-20 13:55:00
9:15 AM,52.3,41.5,67,30.14,10.0,WNW,10.4,16.1,N/A,,Clear,290,2013-09-20 14:15:00
9:35 AM,54.0,42.1,64,30.14,10.0,WNW,11.5,16.1,N/A,,Clear,300,2013-09-20 14:35:00
9:55 AM,55.0,42.8,63,30.14,10.0,WNW,12.7,20.7,N/A,,Clear,300,2013-09-20 14:55:00
10:15 AM,56.7,42.8,60,30.14,10.0,NW,16.1,-,N/A,,Clear,310,2013-09-20 15:15:00
10:35 AM,57.4,42.3,57,30.13,10.0,NW,15.0,-,N/A,,Clear,310,2013-09-20 15:35:00
10:55 AM,58.8,41.9,53,30.13,10.0,NW,12.7,24.2,N/A,,Clear,320,2013-09-20 15:55:00
11:15 AM,60.1,42.6,53,30.13,10.0,NW,17.3,24.2,N/A,,Clear,320,2013-09-20 16:15:00
11:35 AM,60.8,41.7,49,30.12,10.0,WNW,16.1,26.5,N/A,,Clear,300,2013-09-20 16:35:00
11:55 AM,61.9,41.9,48,30.12,10.0,NNW,16.1,21.9,N/A,,Clear,330,2013-09-20 16:55:00
12:15 PM,62.1,41.4,47,30.11,10.0,NW,17.3,25.3,N/A,,Clear,320,2013-09-20 17:15:00
12:35 PM,63.3,41.2,44,30.10,10.0,NW,16.1,21.9,N/A,,Clear,320,2013-09-20 17:35:00
12:55 PM,64.2,40.5,42,30.10,10.0,NW,17.3,24.2,N/A,,Clear,310,2013-09-20 17:55:00
1:15 PM,64.8,41.0,42,30.09,10.0,NNW,17.3,-,N/A,,Clear,330,2013-09-20 18:15:00
1:35 PM,66.2,41.0,40,30.08,10.0,WNW,12.7,21.9,N/A,,Clear,300,2013-09-20 18:35:00
1:55 PM,66.7,39.7,37,30.08,10.0,NW,16.1,19.6,N/A,,Clear,320,2013-09-20 18:55:00
2:15 PM,66.7,39.7,37,30.07,10.0,NW,15.0,21.9,N/A,,Clear,320,2013-09-20 19:15:00
2:35 PM,67.8,39.4,35,30.06,10.0,NW,13.8,-,N/A,,Clear,310,2013-09-20 19:35:00
2:55 PM,67.6,37.6,33,30.05,10.0,NW,12.7,20.7,N/A,,Clear,320,2013-09-20 19:55:00
3:15 PM,68.4,36.9,31,30.05,10.0,NW,11.5,-,N/A,,Clear,310,2013-09-20 20:15:00
3:35 PM,68.5,36.1,30,30.04,10.0,NNW,10.4,17.3,N/A,,Clear,330,2013-09-20 20:35:00
3:55 PM,68.9,36.9,31,30.04,10.0,NW,16.1,20.7,N/A,,Clear,310,2013-09-20 20:55:00
4:15 PM,69.1,34.2,28,30.04,10.0,NW,15.0,19.6,N/A,,Clear,310,2013-09-20 21:15:00
4:35 PM,69.1,35.1,29,30.03,10.0,NNW,10.4,18.4,N/A,,Clear,330,2013-09-20 21:35:00
4:55 PM,69.6,34.3,27,30.02,10.0,WNW,10.4,16.1,N/A,,Clear,300,2013-09-20 21:55:00
5:15 PM,69.4,34.0,27,30.01,10.0,WNW,10.4,16.1,N/A,,Clear,290,2013-09-20 22:15:00
5:35 PM,69.1,35.2,29,30.01,10.0,NW,10.4,-,N/A,,Clear,320,2013-09-20 22:35:00
5:55 PM,68.9,35.4,29,30.01,10.0,WNW,9.2,-,N/A,,Clear,300,2013-09-20 22:55:00
6:15 PM,68.4,36.3,31,30.01,10.0,NNW,5.8,-,N/A,,Clear,330,2013-09-20 23:15:00
6:35 PM,67.3,37.6,34,30.01,10.0,NNW,3.5,-,N/A,,Clear,340,2013-09-20 23:35:00
6:55 PM,65.8,40.3,39,30.01,10.0,North,3.5,-,N/A,,Clear,10,2013-09-20 23:55:00
7:15 PM,64.6,40.6,42,30.01,10.0,Calm,Calm,-,N/A,,Clear,0,2013-09-21 00:15:00
7:35 PM,61.9,42.3,49,30.01,10.0,North,3.5,-,N/A,,Clear,10,2013-09-21 00:35:00
7:55 PM,60.1,43.3,54,30.01,10.0,NE,3.5,-,N/A,,Clear,50,2013-09-21 00:55:00
8:15 PM,59.0,42.8,55,30.01,10.0,NE,3.5,-,N/A,,Clear,50,2013-09-21 01:15:00
8:35 PM,58.3,41.4,53,30.01,10.0,ENE,4.6,-,N/A,,Clear,60,2013-09-21 01:35:00
8:55 PM,57.6,40.8,54,30.01,10.0,Calm,Calm,-,N/A,,Clear,0,2013-09-21 01:55:00
9:15 PM,55.8,41.9,60,30.01,10.0,NE,4.6,-,N/A,,Clear,50,2013-09-21 02:15:00
9:35 PM,54.5,41.4,61,30.01,10.0,ENE,4.6,-,N/A,,Clear,70,2013-09-21 02:35:00
9:55 PM,54.5,41.9,62,30.02,10.0,East,4.6,-,N/A,,Clear,90,2013-09-21 02:55:00
10:15 PM,55.0,41.4,60,30.02,10.0,East,3.5,-,N/A,,Clear,90,2013-09-21 03:15:00
10:35 PM,52.0,41.4,67,30.02,10.0,Calm,Calm,-,N/A,,Clear,0,2013-09-21 03:35:00
10:55 PM,52.9,41.0,64,30.02,10.0,Calm,Calm,-,N/A,,Clear,0,2013-09-21 03:55:00
11:15 PM,52.0,41.5,68,30.03,10.0,Calm,Calm,-,N/A,,Clear,0,2013-09-21 04:15:00
11:35 PM,46.6,43.0,87,30.03,10.0,South,3.5,-,N/A,,Clear,170,2013-09-21 04:35:00
11:55 PM,45.9,41.2,84,30.03,10.0,SSW,3.5,-,N/A,,Clear,200,2013-09-21 04:55:00